| 02 May 2026 | La Traversée de la Baie Saint-Brieuc (22) 15KM - Nature ARCHIVES DE CETTE COURSE Tps moyen : 01:32:02 publiée avec accord |
![]() 928 |
![]() 483 |
CAM 11 JUM 41 ESM 14 SEM 101 |
M0M 54 M1M 52 M2M 49 M3M 66 M4M 41 |
M5M 32 M6M 13 M7M 6 M8M 2 M9M 1 |
CAF 3 JUF 22 ESF 10 SEF 100 |
M0F 62 M1F 66 M2F 50 M3F 72 M4F 30 |
M5F 18 M6F 8 M7F 3 | ![]() 445 |
← 1... 9 10 11 12 13 14 15... 19 →
| Classement |
Nom et Prénom |
Perf |
Allure moyenne |
Cl. Cat. |
| 651/928 | GUYARD Thomas | 01:39:14 RP | 6:37 | 44/M3M |
| 655/928 | RATEL Olivier (19754) | 01:39:19 | 6:37 | 45/M3M |
| 667/928 | BEUREL Gregory | 01:39:51 | 6:39 | 46/M3M |
| 672/928 | MEROT Didier | 01:39:57 | 6:40 | 47/M3M |
| 674/928 | LE ROUX Jerome (3721) | 01:40:00 | 6:40 | 48/M3M |
| 734/928 | MONOT Guillaume | 01:42:55 | 6:52 | 49/M3M |
| 750/928 | LE GOAS David | 01:44:27 | 6:58 | 50/M3M |
| 766/928 | KIEFER Sebastien (11248) | 01:45:36 RP | 7:02 | 51/M3M |
| 778/928 | LE BIHAN Francois | 01:46:09 | 7:05 | 52/M3M |
| 786/928 | BOSKMA Heinz (19790) | 01:46:30 RP | 7:06 | 53/M3M |
| 790/928 | FLEURENT Xavier | 01:46:48 | 7:07 | 54/M3M |
| 798/928 | TROCHON Bruno | 01:47:21 | 7:09 | 55/M3M |
| 804/928 | LE FUSTEC Didier | 01:47:53 | 7:12 | 56/M3M |
| 823/928 | PETER Pierre-Guillaume | 01:49:20 | 7:17 | 57/M3M |
| 832/928 | LANDRY Ronan | 01:50:03 RP | 7:20 | 58/M3M |
| 838/928 | ARMAND Fabrice | 01:51:15 RP | 7:25 | 59/M3M |
| 841/928 | GOOSSE Sebastien | 01:52:07 RP | 7:28 | 60/M3M |
| 844/928 | NONNON David | 01:52:10 | 7:29 | 61/M3M |
| 845/928 | LE MOY Yoann | 01:52:32 | 7:30 | 62/M3M |
| 851/928 | LAROY Dominique | 01:53:32 RP | 7:34 | 63/M3M |
| 866/928 | DEWERCHIN David | 01:57:18 | 7:49 | 64/M3M |
| 921/928 | ROBIN Didier (18658) | 02:15:20 | 9:01 | 65/M3M |
| 922/928 | GOURMAND Stephane | 02:15:24 RP | 9:02 | 66/M3M |
| 116/928 | LE BOHEC Christine | 01:13:26 RP | 4:54 | 1/M4F |
| 238/928 | MALVOISIN Sophie (2090) | 01:21:42 RP | 5:27 | 2/M4F |
| 261/928 | LETOURNEUR Manuela | 01:22:54 RP | 5:32 | 3/M4F |
| 364/928 | TEMPLIER Isabelle | 01:27:57 RP | 5:52 | 4/M4F |
| 385/928 | JORET Patricia | 01:28:47 RP | 5:55 | 5/M4F |
| 402/928 | BOUHET Isabelle | 01:29:21 RP | 5:57 | 6/M4F |
| 404/928 | LEHUEN Marie-Laure | 01:29:26 RP | 5:58 | 7/M4F |
| 412/928 | GERVAIS Nelly | 01:29:46 RP | 5:59 | 8/M4F |
| 459/928 | CULOS Catherine | 01:31:36 RP | 6:06 | 9/M4F |
| 479/928 | PEDRONO Marie-Agnes | 01:32:37 RP | 6:10 | 10/M4F |
| 504/928 | MORVAN Gwenaelle | 01:33:46 | 6:15 | 11/M4F |
| 514/928 | THALOUARN Flore | 01:34:04 RP | 6:16 | 12/M4F |
| 527/928 | RIMBAULT Francoise | 01:34:48 RP | 6:19 | 13/M4F |
| 540/928 | LE GUENNIC Christine | 01:35:16 RP | 6:21 | 14/M4F |
| 550/928 | VILLERIOT Nathalie | 01:35:40 | 6:23 | 15/M4F |
| 567/928 | HEDDEBAUX Christelle | 01:36:16 | 6:25 | 16/M4F |
| 591/928 | JAGOREL Nelly (5712) | 01:37:14 RP | 6:29 | 17/M4F |
| 605/928 | LEVACHER-SAINT SANS Laurence | 01:37:39 RP | 6:31 | 18/M4F |
| 613/928 | CHATTON Patricia | 01:37:52 RP | 6:31 | 19/M4F |
| 615/928 | BREGEON Dominique (1266) | 01:37:59 | 6:32 | 20/M4F |
| 617/928 | BOISSEL Martine | 01:38:01 | 6:32 | 21/M4F |
| 619/928 | CADORET Clara (5468) | 01:38:02 | 6:32 | 22/M4F |
| 650/928 | PETITPREZ Colette | 01:39:12 RP | 6:37 | 23/M4F |
| 755/928 | HUBAUT SOARES Isabelle | 01:45:04 RP | 7:00 | 24/M4F |
| 794/928 | PHILIPPE Florence | 01:47:09 RP | 7:09 | 25/M4F |
| 813/928 | GRAS Muriel | 01:48:28 | 7:14 | 26/M4F |
| 816/928 | CHATENAY Elodie | 01:48:30 RP | 7:14 | 27/M4F |
← 1... 9 10 11 12 13 14 15... 19 →
Votre Palmarès est incomplet ? Connectez-vous pour ajouter vos courses manquantes même hors Bretagne
le Résultat de cette Course





